Flag for Canada Weather past 2 weeks in Cape Dorset, Nunavut Territory, Canada

Now
-6 °F

Ice fog.


Feels Like: -28 °F
Forecast: -13 / -3 °F
Wind: 17 mph from South

Location: Cape Dorset

Current Time: Feb 28, 2015 at 10:39:35 PM

Latest Report: Feb 28, 2015 at 10:01 PM


Visibility: 2 mi

Pressure: 29.57 "Hg

Humidity: 84%

Dew point: -9 °F

Location of Cape DorsetLocation

Historic Weather in Cape Dorset — Graph

°F

Cape Dorset temperature yesterday

Maximum temperature yesterday: -13 °F (at 2:00 PM)
Minimum temperature yesterday: -22 °F (at 11:00 PM)
Average temperature yesterday: -19 °F

Past Weeks' High & Low Weather Summary

 TemperatureHumidityPressure
High-6 °F (Feb 16, 2:55 PM)84% (Feb 16, 4:04 AM)30.33 "Hg (Feb 16, 4:04 AM)
Low-27 °F (Feb 13, 9:00 PM)67% (Feb 13, 9:00 PM)29.56 "Hg (Feb 26, 1:00 AM)
Average-16 °F76%29.85 "Hg
* Reported Feb 13 9:00 PM — Feb 28 9:00 PM, Cape Dorset, Weather by CustomWeather, © 2015

Note: Actual official high and low records may vary slightly from our data, if they occured in-between our weather recording intervals... More about our weather records

Advertising

Cape Dorset weather history for previous 24 hours

 ConditionsComfort  
Time TempWeatherWind HumidityBarometerVisibility
9:00 PM
Sat, Feb 28
-6 °FIce fog.13 mph84%29.59 "Hg4 mi
8:45 PM-8 °FIce fog.14 mph84%29.59 "Hg4 mi
8:04 PM-9 °FLight snow. Mostly cloudy.2 mph84%29.60 "Hg2 mi
8:00 PM-9 °FLight snow. Mostly cloudy.5 mph84%29.60 "Hg2 mi
7:57 PM-9 °FLight snow. Mostly cloudy.3 mph77%29.61 "Hg2 mi
7:00 PM-9 °FLight snow. Overcast.5 mph77%29.62 "Hg2 mi
6:00 PM-11 °FLight snow. Overcast.13 mph76%29.64 "Hg2 mi
5:59 PM-11 °FLight snow. Overcast.13 mph76%29.63 "Hg2 mi
5:00 PM-13 °FPartly sunny.18 mph83%29.64 "Hg7 mi
4:00 PM-13 °FIce fog.14 mph76%29.65 "Hg6 mi
3:00 PM-13 °FScattered clouds.15 mph83%29.66 "Hg9 mi
2:00 PM-13 °FScattered clouds.15 mph83%29.66 "Hg9 mi
1:00 PM-13 °FIce fog.15 mph76%29.66 "Hg4 mi
12:00 PM-13 °FIce fog.17 mph83%29.67 "Hg4 mi
11:00 AM-13 °FIce fog.20 mph83%29.68 "Hg4 mi
10:00 AM-13 °FSunny.15 mph76%29.68 "Hg8 mi
9:45 AM-15 °FIce fog.15 mph83%29.68 "Hg6 mi
9:00 AM-15 °FLight snow. Partly sunny.15 mph76%29.69 "Hg1 mi
8:01 AM-15 °FSunny.20 mph76%29.69 "Hg1 mi
7:00 AM-17 °FIce fog.20 mph83%29.70 "Hg2 mi
6:55 AM-17 °FIce fog.18 mph76%29.70 "Hg2 mi
6:00 AM-17 °FLight snow. Low clouds.13 mph83%29.70 "Hg1 mi
5:00 AM-17 °FLight snow. Low clouds.15 mph83%29.71 "Hg1 mi
4:00 AM-15 °FLight snow. Mostly cloudy.18 mph76%29.71 "Hg1 mi
3:00 AM-15 °FLight snow. Low clouds.15 mph76%29.72 "Hg1 mi
2:48 AM-15 °FLight snow. Low clouds.14 mph76%29.72 "Hg1 mi
2:00 AM-17 °FLight snow. Ice fog.12 mph76%29.72 "Hg1 mi
1:00 AM-17 °FLight snow. Ice fog.10 mph76%29.73 "Hg1 mi
12:00 AM-20 °FClear.2 mph75%29.75 "Hg9 mi
11:00 PM
Fri, Feb 27
-22 °FClear.3 mph75%29.75 "Hg9 mi
10:00 PM-20 °FHaze.7 mph75%29.75 "Hg4 mi
Weather by CustomWeather, © 2015

See weather overviewHow to use our weather pages